Location: Unspecified
(33.6682°S, 0.0000°E)
Time: 01:06:52
(UTC+00:00)

Altair - Visible Passes

Search period start: 27 June 2019 00:00
Search period end: 07 July 2019 00:00
Orbit: 1501 x 1683 km, 47.2° (Epoch: 25 June)

Date Brightness Start Highest point End Pass type
(mag) Time Alt. Az. Time Alt. Az. Time Alt. Az.
27 Jun 9.3 03:32:51 10° N 03:40:08 23° NE 03:47:17 10° ESE visible
27 Jun 7.7 05:33:55 10° NW 05:44:01 81° NE 05:53:47 10° SE visible
28 Jun 9.4 03:08:18 10° NNE 03:15:03 20° NE 03:21:42 10° E visible
28 Jun 7.7 05:08:45 10° NW 05:18:49 76° NE 05:28:37 10° SE visible
29 Jun 9.5 02:46:10 14° NNE 02:49:58 18° ENE 02:56:00 10° E visible
29 Jun 7.8 04:44:23 13° NW 04:53:39 70° NE 05:03:25 10° ESE visible
30 Jun 9.5 02:24:21 16° NE 02:24:53 16° ENE 02:30:10 10° E visible
30 Jun 7.8 04:22:31 28° NNW 04:28:29 65° NE 04:38:13 10° ESE visible
30 Jun 7.8 06:23:55 10° W 06:33:39 52° SSW 06:43:05 10° SE visible
01 Jul 9.7 02:02:02 12° ENE 02:02:02 12° ENE 02:04:06 10° E visible
01 Jul 7.9 04:00:09 44° N 04:03:19 60° NE 04:12:59 10° ESE visible
01 Jul 7.7 05:58:32 10° WNW 06:08:21 55° SSW 06:17:54 10° SE visible
02 Jul 8.0 03:37:27 54° NNE 03:38:09 55° NE 03:47:45 10° ESE visible
02 Jul 7.7 05:35:33 19° W 05:43:05 58° SSW 05:52:43 10° SE visible
03 Jul 8.2 03:14:31 47° ENE 03:14:31 47° ENE 03:22:30 10° ESE visible
03 Jul 7.6 05:12:36 32° W 05:17:49 62° SSW 05:27:32 10° SE visible
04 Jul 8.7 02:51:23 35° E 02:51:23 35° E 02:57:13 10° ESE visible
04 Jul 7.6 04:49:27 47° W 04:52:32 65° SSW 05:02:22 10° SE visible
05 Jul 9.1 02:28:07 25° ESE 02:28:07 25° ESE 02:31:55 10° ESE visible
05 Jul 7.4 04:26:10 65° WSW 04:27:17 70° SSW 04:37:11 10° SE visible
05 Jul 8.2 06:24:27 10° WSW 06:33:37 38° S 06:42:29 10° ESE visible
06 Jul 9.5 02:04:43 16° ESE 02:04:43 16° ESE 02:06:35 10° ESE visible
06 Jul 7.5 04:02:45 71° S 04:02:45 71° S 04:12:00 10° SE visible
06 Jul 8.2 06:00:49 16° WSW 06:08:15 39° S 06:17:14 10° SE visible
